Simultaneous Nadir Overpasses (SNOs) Predictions

Prediction of SNOs between GOES-14 and AQUA Satellite Orbit:

Table of predicted SNOs for the next 14.0 days since TLE Epoch: 9/19/2025
Index Date Time (GOES-14) GOES-14 Lat,Lon AQUA Lat,Lon Distance(km) Time Diff (sec)
1 09/20/2025 21:56:05 0.72,-108.34 1.24,-106.05 260.73 80
2 09/21/2025 10:17:46 -0.65,-108.38 -0.15,-110.63 256.35 80
3 09/23/2025 09:54:28 -0.70,-108.40 -1.33,-105.59 319.80 80
4 09/23/2025 22:16:19 0.62,-108.36 0.23,-110.21 210.87 80
5 09/25/2025 21:53:00 0.67,-108.37 1.39,-105.16 365.75 80
6 09/26/2025 10:14:42 -0.59,-108.42 -0.32,-109.75 150.63 80
7 09/28/2025 09:51:22 -0.65,-108.43 -1.45,-104.69 425.13 80
8 09/28/2025 22:13:13 0.57,-108.38 0.37,-109.31 105.94 80
9 09/30/2025 21:49:53 0.62,-108.39 1.55,-104.26 470.27 80
10 10/01/2025 10:11:35 -0.54,-108.44 -0.48,-108.85 45.54 80
